Pittsburgh, PA

6:54 PM EDT on October 18, 2017 (GMT -0400)
Pittsburgh International

Weather History for KPIT - January, 2013

Change the Weather History Date:

Sunday, January 6, 2013

  Actual Average Record
Temperature  
Mean Temperature 34 °F 28 °F  
Max Temperature 37 °F 36 °F 70 °F (1946)
Min Temperature 31 °F 21 °F -7 °F (2014)
Degree Days  
Heating Degree Days 31 37  
Month to date heating degree days 230 218  
Since 1 July heating degree days 2301 2393  
Cooling Degree Days 0 0  
Month to date cooling degree days 0 0  
Year to date cooling degree days 0 0  
Moisture  
Dew Point 26 °F    
Average Humidity 75    
Maximum Humidity 89    
Minimum Humidity 61    
Precipitation  
Precipitation T in 0.09 in 0.90 in (1874)
Month to date precipitation 0.05 0.53  
Year to date precipitation 0.05 0.53  
Snow  
Snow T in 0.40 in 6.70 in (1905)
Month to date snowfall 0.8 2.0  
Since 1 July snowfall 15.3 12.7  
Snow Depth 0.00 in    
Sea Level Pressure  
Sea Level Pressure 30.10 in    
Wind  
Wind Speed 7 mph (WSW)    
Max Wind Speed 22 mph    
Max Gust Speed 25 mph    
Visibility 10 miles    
Events Snow    
T = Trace of Precipitation, MM = Missing Value Source: NWS Daily Summary

Daily Weather History Graph

Daily Weather History Graph

Search for Another Location

Airport or City:

Trip Planner

Search our weather history database for the weather conditions in past years. The results will help you decide how hot, cold, wet, or windy it might be!

Date:

Astronomy

Jan. 06, 2013 Rise Set
Actual Time 7:44 AM EST 5:09 PM EST
Civil Twilight 7:13 AM EST 5:40 PM EST
Nautical Twilight 6:39 AM EST 6:14 PM EST
Astronomical Twilight 6:06 AM EST 6:47 PM EST
Moon 1:56 AM EST (1/6) 12:36 PM EST (1/6)
Length of Visible Light 10h 26m
Length of Day
9h 25m
Waning Crescent, 33% of the Moon is Illuminated
Jan 6
Waning Crescent
Jan 11
New
Jan 18
First Quarter
Jan 26
Full
Feb 3
Last Quarter

Hourly Weather History & Observations

Time (EST) Temp. Windchill Dew Point Humidity Pressure Visibility Wind Dir Wind Speed Gust Speed Precip Events Conditions
12:51 AM 34.0 °F 29.8 °F 21.9 °F 61% 30.16 in 10.0 mi SSW 4.6 mph - N/A   Overcast
1:51 AM 34.0 °F 29.8 °F 23.0 °F 64% 30.16 in 10.0 mi SW 4.6 mph - N/A   Overcast
2:51 AM 34.0 °F 28.8 °F 23.0 °F 64% 30.14 in 10.0 mi SSW 5.8 mph - N/A   Overcast
3:51 AM 34.0 °F 28.8 °F 23.0 °F 64% 30.13 in 10.0 mi SW 5.8 mph - N/A   Overcast
4:51 AM 33.1 °F 28.7 °F 24.1 °F 70% 30.11 in 10.0 mi SSW 4.6 mph - N/A   Scattered Clouds
5:51 AM 32.0 °F 27.5 °F 23.0 °F 69% 30.10 in 10.0 mi SSW 4.6 mph - N/A   Mostly Cloudy
6:51 AM 32.0 °F 27.5 °F 23.0 °F 69% 30.11 in 10.0 mi South 4.6 mph - N/A   Mostly Cloudy
7:51 AM 32.0 °F 26.4 °F 24.1 °F 73% 30.09 in 10.0 mi SSW 5.8 mph - N/A   Overcast
8:51 AM 34.0 °F 28.0 °F 24.1 °F 67% 30.10 in 10.0 mi SSW 6.9 mph - N/A   Overcast
9:51 AM 35.1 °F 27.9 °F 25.0 °F 67% 30.09 in 10.0 mi SSW 9.2 mph - 0.00 in   Overcast
10:51 AM 36.0 °F 28.0 °F 25.0 °F 64% 30.09 in 10.0 mi SW 11.5 mph - N/A   Overcast
11:51 AM 37.4 °F 31.4 °F 26.6 °F 65% 30.00 in 10.0 mi SW 8.1 mph 16.1 mph N/A   Overcast
12:51 PM 37.0 °F 30.4 °F 26.1 °F 65% 30.03 in 10.0 mi WSW 9.2 mph - N/A   Overcast
1:51 PM 37.0 °F 31.0 °F 26.1 °F 65% 30.02 in 10.0 mi SW 8.1 mph - N/A   Overcast
3:51 PM 37.0 °F 31.6 °F 27.0 °F 67% 30.04 in 9.0 mi WSW 6.9 mph - 0.00 in Snow Light Snow
4:25 PM 37.4 °F 30.8 °F 28.4 °F 70% 30.01 in 8.0 mi West 9.2 mph 17.3 mph 0.00 in Snow Light Snow
4:51 PM 36.0 °F 31.1 °F 28.9 °F 76% 30.07 in 5.0 mi WSW 5.8 mph - 0.00 in Snow Light Snow
5:28 PM 35.6 °F 31.7 °F 28.4 °F 75% 30.03 in 8.0 mi West 4.6 mph - 0.00 in Snow Light Snow
5:51 PM 35.1 °F 31.0 °F 30.0 °F 82% 30.09 in 9.0 mi WSW 4.6 mph - 0.00 in Snow Light Snow
6:51 PM 34.0 °F 28.8 °F 30.0 °F 85% 30.12 in 9.0 mi WSW 5.8 mph - 0.00 in Snow Light Snow
7:35 PM 33.8 °F 28.6 °F 30.2 °F 87% 30.07 in 10.0 mi WSW 5.8 mph - 0.00 in   Overcast
7:51 PM 34.0 °F 29.8 °F 30.0 °F 85% 30.14 in 10.0 mi West 4.6 mph - 0.00 in   Overcast
8:51 PM 34.0 °F 28.0 °F 30.0 °F 85% 30.15 in 10.0 mi West 6.9 mph - N/A   Overcast
9:24 PM 33.8 °F 26.4 °F 30.2 °F 87% 30.11 in 10.0 mi West 9.2 mph - N/A   Overcast
9:51 PM 34.0 °F 23.0 °F 28.0 °F 79% 30.17 in 10.0 mi NW 18.4 mph - 0.00 in Snow Light Snow
10:36 PM 33.8 °F 23.9 °F 26.6 °F 75% 30.14 in 9.0 mi WNW 15.0 mph - 0.00 in   Overcast
10:51 PM 33.1 °F 24.9 °F 27.0 °F 78% 30.21 in 10.0 mi West 10.4 mph - 0.00 in   Overcast
11:51 PM 33.1 °F 23.9 °F 26.1 °F 75% 30.24 in 8.0 mi West 12.7 mph - N/A   Overcast